When you browse on this site, cookies collect data to enhance your experience and personalize the content and advertising you see.
Visit our Privacy Policy to learn more. By continuing to use the site, you agree to this use of cookies and data.

Meteo pe oră la Hakodate

Astăzi, 6 Iulie, Luni

Timp Temperatura Precipitaţii Vânt Presiune Umiditate
00:00 +16°C° 0 mm 0 m/s 752 mmHg 95%
01:00 +16°C° 0 mm 0 m/s 752 mmHg 95%
02:00 +16°C° 0 mm 0 m/s 752 mmHg 96%
03:00 +17°C° 0 mm 0 m/s 752 mmHg 96%
04:00 +17°C° 0 mm 0 m/s 752 mmHg 95%
05:00 +18°C° 0 mm 0 m/s 752 mmHg 94%
06:00 +20°C° 0 mm 1 m/s 753 mmHg 94%
07:00 +22°C° 0 mm 1 m/s 753 mmHg 85%
08:00 +24°C° 0 mm 1 m/s 753 mmHg 77%
09:00 +25°C° 0 mm 1 m/s 753 mmHg 68%
10:00 +26°C° 0 mm 1 m/s 753 mmHg 66%
11:00 +26°C° 0 mm 2 m/s 753 mmHg 64%
12:00 +27°C° 0 mm 2 m/s 753 mmHg 62%
13:00 +27°C° 0 mm 3 m/s 752 mmHg 63%
14:00 +26°C° 0 mm 3 m/s 752 mmHg 65%
15:00 +26°C° 0 mm 3 m/s 752 mmHg 66%
16:00 +25°C° 0 mm 3 m/s 752 mmHg 72%
17:00 +24°C° 0 mm 3 m/s 752 mmHg 79%
18:00 +23°C° 0 mm 2 m/s 752 mmHg 85%
19:00 +21°C° 0.1 mm 2 m/s 752 mmHg 87%
20:00 +20°C° 0.1 mm 2 m/s 752 mmHg 89%
21:00 +20°C° 0.1 mm 2 m/s 752 mmHg 90%
22:00 +20°C° 0.8 mm 2 m/s 752 mmHg 92%
23:00 +20°C° 0.8 mm 2 m/s 752 mmHg 93%

Mâine, 7 Iulie, Marţi

Timp Temperatura Precipitaţii Vânt Presiune Umiditate
00:00 +20°C° 0.8 mm 2 m/s 751 mmHg 95%
01:00 +20°C° 0.7 mm 2 m/s 751 mmHg 96%
02:00 +20°C° 0.7 mm 2 m/s 751 mmHg 96%
03:00 +20°C° 0.7 mm 2 m/s 751 mmHg 97%
04:00 +20°C° 0.6 mm 2 m/s 751 mmHg 97%
05:00 +20°C° 0.6 mm 2 m/s 751 mmHg 97%
06:00 +20°C° 0.6 mm 2 m/s 751 mmHg 98%
07:00 +21°C° 0.2 mm 2 m/s 751 mmHg 97%
08:00 +21°C° 0.2 mm 2 m/s 751 mmHg 97%
09:00 +22°C° 0.2 mm 1 m/s 751 mmHg 97%
10:00 +22°C° 0.1 mm 1 m/s 751 mmHg 96%
11:00 +23°C° 0.1 mm 1 m/s 751 mmHg 96%
12:00 +23°C° 0.1 mm 2 m/s 751 mmHg 95%
13:00 +24°C° 0.1 mm 2 m/s 750 mmHg 91%
14:00 +25°C° 0.1 mm 2 m/s 750 mmHg 86%
15:00 +26°C° 0.1 mm 2 m/s 750 mmHg 82%
16:00 +25°C° 0.1 mm 2 m/s 750 mmHg 86%
17:00 +24°C° 0.1 mm 2 m/s 750 mmHg 90%
18:00 +23°C° 0.1 mm 2 m/s 750 mmHg 94%
19:00 +23°C° 0.1 mm 2 m/s 750 mmHg 95%
20:00 +21°C° 0.1 mm 2 m/s 750 mmHg 96%
21:00 +21°C° 0.1 mm 2 m/s 750 mmHg 98%
22:00 +21°C° 3.5 mm 2 m/s 749 mmHg 98%
23:00 +21°C° 3.5 mm 2 m/s 749 mmHg 98%

Poimâine, 8 Iulie, Miercuri

Timp Temperatura Precipitaţii Vânt Presiune Umiditate
00:00 +21°C° 3.5 mm 3 m/s 749 mmHg 98%
01:00 +21°C° 1.5 mm 2 m/s 748 mmHg 98%
02:00 +21°C° 1.5 mm 2 m/s 748 mmHg 98%
03:00 +21°C° 1.5 mm 2 m/s 748 mmHg 98%
04:00 +21°C° 0.7 mm 2 m/s 748 mmHg 98%
05:00 +22°C° 0.7 mm 1 m/s 748 mmHg 98%
06:00 +20°C° 0.7 mm 0 m/s 748 mmHg 98%
07:00 +23°C° 0 mm 1 m/s 748 mmHg 95%
08:00 +24°C° 0 mm 1 m/s 748 mmHg 92%
09:00 +25°C° 0 mm 2 m/s 748 mmHg 90%
10:00 +25°C° 0.1 mm 3 m/s 748 mmHg 89%
11:00 +25°C° 0.1 mm 4 m/s 748 mmHg 88%
12:00 +25°C° 0.1 mm 5 m/s 749 mmHg 87%
13:00 +25°C° 0.3 mm 5 m/s 748 mmHg 87%
14:00 +26°C° 0.3 mm 5 m/s 748 mmHg 88%
15:00 +26°C° 0.3 mm 5 m/s 748 mmHg 88%
16:00 +25°C° 0.2 mm 5 m/s 749 mmHg 90%
17:00 +23°C° 0.2 mm 5 m/s 749 mmHg 93%
18:00 +23°C° 0.2 mm 5 m/s 749 mmHg 95%
19:00 +22°C° 0 mm 4 m/s 750 mmHg 96%
20:00 +21°C° 0 mm 4 m/s 750 mmHg 97%
21:00 +21°C° 0 mm 3 m/s 750 mmHg 98%
22:00 +21°C° 0 mm 3 m/s 750 mmHg 98%
23:00 +20°C° 0 mm 3 m/s 750 mmHg 98%

9 Iulie, Joi

Timp Temperatura Precipitaţii Vânt Presiune Umiditate
00:00 +20°C° 0 mm 3 m/s 750 mmHg 98%
01:00 +20°C° 0 mm 3 m/s 750 mmHg 98%
02:00 +19°C° 0 mm 3 m/s 750 mmHg 98%
03:00 +19°C° 0 mm 3 m/s 751 mmHg 98%
04:00 +20°C° 0 mm 2 m/s 751 mmHg 97%
05:00 +20°C° 0 mm 2 m/s 751 mmHg 96%
06:00 +20°C° 0 mm 2 m/s 751 mmHg 95%
07:00 +22°C° 0 mm 3 m/s 752 mmHg 84%
08:00 +23°C° 0 mm 4 m/s 752 mmHg 72%
09:00 +25°C° 0 mm 4 m/s 752 mmHg 61%
10:00 +26°C° 0 mm 5 m/s 752 mmHg 59%
11:00 +26°C° 0 mm 5 m/s 752 mmHg 57%
12:00 +27°C° 0 mm 6 m/s 752 mmHg 56%
13:00 +26°C° 0 mm 5 m/s 752 mmHg 57%
14:00 +26°C° 0 mm 5 m/s 752 mmHg 58%
15:00 +26°C° 0 mm 5 m/s 752 mmHg 60%
16:00 +25°C° 0 mm 4 m/s 753 mmHg 65%
17:00 +23°C° 0 mm 4 m/s 753 mmHg 71%
18:00 +22°C° 0 mm 3 m/s 753 mmHg 77%
19:00 +21°C° 0 mm 3 m/s 754 mmHg 79%
20:00 +20°C° 0 mm 2 m/s 754 mmHg 81%
21:00 +18°C° 0 mm 2 m/s 754 mmHg 82%
22:00 +19°C° 0 mm 1 m/s 754 mmHg 82%
23:00 +19°C° 0 mm 1 m/s 754 mmHg 81%

10 Iulie, Vineri

Timp Temperatura Precipitaţii Vânt Presiune Umiditate
00:00 +19°C° 0 mm 1 m/s 755 mmHg 80%
01:00 +19°C° 0 mm 1 m/s 755 mmHg 80%
02:00 +19°C° 0 mm 1 m/s 755 mmHg 80%
03:00 +19°C° 0 mm 1 m/s 755 mmHg 80%
04:00 +20°C° 0 mm 1 m/s 755 mmHg 78%
05:00 +21°C° 0 mm 1 m/s 755 mmHg 77%
06:00 +22°C° 0 mm 1 m/s 756 mmHg 76%
07:00 +23°C° 0 mm 1 m/s 756 mmHg 69%
08:00 +25°C° 0 mm 1 m/s 756 mmHg 62%
09:00 +27°C° 0 mm 2 m/s 756 mmHg 55%
10:00 +27°C° 0 mm 2 m/s 756 mmHg 52%
11:00 +28°C° 0 mm 3 m/s 756 mmHg 50%
12:00 +28°C° 0 mm 3 m/s 756 mmHg 48%
13:00 +28°C° 0 mm 3 m/s 756 mmHg 48%
14:00 +28°C° 0 mm 3 m/s 755 mmHg 48%
15:00 +28°C° 0 mm 3 m/s 755 mmHg 48%
16:00 +27°C° 0 mm 2 m/s 755 mmHg 55%
17:00 +26°C° 0 mm 2 m/s 755 mmHg 62%
18:00 +25°C° 0 mm 1 m/s 755 mmHg 69%
19:00 +23°C° 0 mm 1 m/s 756 mmHg 69%
20:00 +22°C° 0 mm 1 m/s 756 mmHg 69%
21:00 +21°C° 0 mm 1 m/s 756 mmHg 69%
22:00 +21°C° 0 mm 1 m/s 756 mmHg 69%
23:00 +20°C° 0 mm 1 m/s 756 mmHg 68%

11 Iulie, Sâmbătă

Timp Temperatura Precipitaţii Vânt Presiune Umiditate
00:00 +20°C° 0 mm 1 m/s 756 mmHg 68%
01:00 +20°C° 0 mm 1 m/s 756 mmHg 68%
02:00 +19°C° 0 mm 2 m/s 756 mmHg 68%
03:00 +19°C° 0 mm 2 m/s 756 mmHg 68%
04:00 +20°C° 0 mm 2 m/s 756 mmHg 69%
05:00 +20°C° 0 mm 2 m/s 756 mmHg 71%
06:00 +21°C° 0 mm 2 m/s 756 mmHg 73%
07:00 +23°C° 0 mm 2 m/s 756 mmHg 69%
08:00 +25°C° 0 mm 3 m/s 756 mmHg 65%
09:00 +26°C° 0 mm 3 m/s 756 mmHg 60%
10:00 +27°C° 0 mm 4 m/s 756 mmHg 59%
11:00 +27°C° 0 mm 4 m/s 756 mmHg 58%
12:00 +27°C° 0 mm 4 m/s 755 mmHg 57%
13:00 +27°C° 0 mm 4 m/s 755 mmHg 58%
14:00 +27°C° 0 mm 4 m/s 755 mmHg 59%
15:00 +27°C° 0 mm 4 m/s 755 mmHg 59%
16:00 +26°C° 0 mm 4 m/s 755 mmHg 67%
17:00 +23°C° 0 mm 4 m/s 755 mmHg 75%
18:00 +22°C° 0 mm 4 m/s 754 mmHg 83%
19:00 +21°C° 0 mm 4 m/s 755 mmHg 84%
20:00 +20°C° 0 mm 4 m/s 755 mmHg 85%
21:00 +20°C° 0 mm 4 m/s 755 mmHg 86%
22:00 +20°C° 0.1 mm 4 m/s 754 mmHg 87%
23:00 +20°C° 0.1 mm 4 m/s 754 mmHg 87%
Arată mai mult